User: anonymous
Location: NJAA Observatory
(40.6819°N, 74.8979°W)
Time: 16:12:55
(UTC-04:00)
Language:

Cosmos 220 Rocket - Orbit

View from above orbital plane
View from above orbital plane
View from above satellite
View from above satellite

Ground track
Ground track

The orbit data is extracted from the following two-line orbital elements,

1 03230U 68040B   14241.22049365  .00001022  00000-0  11472-3 0  3312
2 03230 074.0369 128.2443 0031768 349.3680 010.6824 14.87910041483215
Epoch (UTC): 29 August 2014 05:17:30
Eccentricity: 0.0031768
inclination: 74.0369°
perigee height: 582 km
apogee height: 626 km
right ascension of ascending node: 128.2443°
argument of perigee: 349.3680°
revolutions per day: 14.87910041
mean anomaly at epoch: 10.6824°
orbit number at epoch: 48321

The dashed part of the orbit path shows where the satellite is in the earth's shadow,  

DLR